Terminal Aerodrome Forecast
Issued by NWS

Home | Current Version | Previous Version | Text Only | Print | Product List | Glossary On
Versions: 1 2 3 4 5 6 7 8 9 10 11 12 13 14 15 16 17 18 19 20 21 22 23 24 25
164
FTUS43 KDVN 161101 AAB
TAFCID
TAF AMD
KCID 161101Z 1611/1706 09007KT 3SM BR SCT250
     FM161500 12006KT P6SM VCSH SCT025 OVC090
     FM170100 13006KT 2SM -TSRA BKN035CB OVC050=

USA.gov is the U.S. government's official web portal to all federal, state and local government web resources and services.